AEHF-3 (USA 246)

Last updated on Wed Oct 15 2025 00:02:47 GMT+0000 (Coordinated Universal Time)

1 39256U 13050A 25287.31916875 .00000018 00000+0 00000+0 0 9995 2 39256 4.6815 69.3808 0093510 180.5653 123.8275 1.00272543 43189
UTC large
Height (km)
Speed (km/s)
/
Latitude / Longitude
Inclination (degrees)
Orbital Period (minutes)
Azimuth
Elevation
Range (km)
Doppler Factor

Next 0 passes for location: London (51.5072 / 0.1276)

Sorry there are no passes over London.